Total_Precipitation_Accumulation
1.64 1.57 1.56 1.37 1.38 1.31 1.29 1.41 1.22 1.05 1.32 1.41 1.13 0.87 0.86 0.75 0.57 0.65 0.66 0.70 0.76 0.76
1.23 1.28 1.32 1.13 0.90 0.86 0.93 0.95 0.95 0.84 0.81 0.81 0.74 0.81 0.85 0.82 0.73 0.63 0.62 0.69 0.78 0.83
0.78 0.69 0.74 0.81 0.89 0.84 0.77 0.83 0.88 0.75 0.65 0.50 0.42 0.46 0.51 0.56 0.63 0.73 0.67 0.63 0.71 0.74
0.55 0.62 0.37 0.40 0.58 0.61 0.69 0.65 0.54 0.67 0.82 0.68 0.53 0.52 0.53 0.53 0.58 0.70 0.69 0.67 0.71 0.72
0.55 0.85 0.62 0.46 0.40 0.47 0.55 0.62 0.51 0.40 0.45 0.62 0.68 0.69 0.69 0.85 0.80 0.69 0.74 0.80 0.87 0.82
0.60 0.70 0.64 0.69 0.53 0.31 0.28 0.33 0.35 0.36 0.35 0.34 0.40 0.51 0.68 0.72 0.72 0.76 0.77 0.69 0.68 0.73
0.25 0.28 0.38 0.45 0.54 0.55 0.34 0.27 0.28 0.31 0.35 0.35 0.23 0.27 0.29 0.28 0.36 0.41 0.47 0.49 0.47 0.50
0.19 0.21 0.22 0.36 0.28 0.34 0.42 0.25 0.18 0.17 0.16 0.23 0.24 0.34 0.28 0.21 0.26 0.37 0.48 0.56 0.54 0.51
0.10 0.07 0.10 0.09 0.07 0.14 0.19 0.18 0.21 0.22 0.16 0.16 0.27 0.53 0.39 0.35 0.37 0.37 0.37 0.36 0.32 0.31
0.19 0.08 0.11 0.24 0.18 0.14 0.18 0.38 0.53 0.56 0.60 0.70 0.82 0.91 0.75 0.61 0.46 0.43 0.37 0.33 0.29 0.22
0.33 0.36 0.28 0.43 0.74 0.77 0.74 0.88 0.78 0.69 0.82 0.89 0.82 0.70 0.53 0.49 0.36 0.31 0.29 0.24 0.12 0.05
0.77 0.92 1.03 0.94 0.87 1.12 0.88 0.81 0.71 0.57 0.48 0.45 0.43 0.29 0.18 0.12 0.10 0.08 0.05 0.03 0.01 0.02
0.74 0.83 0.89 0.89 0.84 0.74 0.60 0.60 0.49 0.38 0.33 0.24 0.14 0.08 0.05 0.05 0.03 0.02 0.01 0.00 0.00 0.02
0.75 0.69 0.53 0.46 0.44 0.31 0.23 0.21 0.15 0.08 0.05 0.02 0.01 0.00 0.00 0.00 0.01 0.01 0.02 0.02 0.01 0.01